, SD

(GMT )
Rapid City

Weather History for KRAP - March, 2013

Change the Weather History Date:

Monday, March 25, 2013

  Actual Average Record
Temperature  
Mean Temperature 16 °F 38 °F  
Max Temperature 31 °F 51 °F 80 °F (1993)
Min Temperature 0 °F 26 °F -10 °F (1965)
Degree Days  
Heating Degree Days 49 27  
Month to date heating degree days 820 763  
Since 1 July heating degree days 5809 5973  
Cooling Degree Days 0 0  
Month to date cooling degree days 0 0  
Year to date cooling degree days 0 0  
Moisture  
Dew Point 8 °F    
Average Humidity 64    
Maximum Humidity 88    
Minimum Humidity 39    
Precipitation  
Precipitation T in 0.04 in 2.01 in (1945)
Month to date precipitation 0.80 0.72  
Year to date precipitation 1.41 1.46  
Snow  
Snow T in 0.30 in 1.20 in (1952)
Month to date snowfall 12.9 7.0  
Since 1 July snowfall 33.3 30.4  
Snow Depth 2.00 in    
Sea Level Pressure  
Sea Level Pressure 30.41 in    
Wind  
Wind Speed 5 mph (NNW)    
Max Wind Speed 18 mph    
Max Gust Speed 22 mph    
Visibility 10 miles    
Events      
T = Trace of Precipitation, MM = Missing Value Source: NWS Daily Summary

Daily Weather History Graph

Daily Weather History Graph

Search for Another Location

Airport or City:

Trip Planner

Search our weather history database for the weather conditions in past years. The results will help you decide how hot, cold, wet, or windy it might be!

Date:

Astronomy

Mar. 25, 2013 Rise Set
Actual Time 6:45 AM MDT 7:11 PM MDT
Civil Twilight 6:16 AM MDT 7:40 PM MDT
Nautical Twilight 5:42 AM MDT 8:14 PM MDT
Astronomical Twilight 5:07 AM MDT 8:49 PM MDT
Moon 5:43 PM MDT (3/25) 5:33 AM MDT (3/25)
Length of Visible Light 13h 23m
Length of Day
12h 25m
Waxing Gibbous, 97% of the Moon is Illuminated
Mar 25
Waxing Gibbous
Mar 27
Full
Apr 2
Last Quarter
Apr 10
New
Apr 18
First Quarter

Hourly Weather History & Observations

Time (MDT) Temp. Windchill Dew Point Humidity Pressure Visibility Wind Dir Wind Speed Gust Speed Precip Events Conditions
12:52 AM 14.0 °F -3.0 °F 8.1 °F 77% 30.44 in 10.0 mi North 18.4 mph - 0.00 in   Overcast
1:52 AM 12.0 °F -3.4 °F 6.1 °F 77% 30.44 in 10.0 mi North 13.8 mph - 0.00 in   Mostly Cloudy
2:04 AM 10.4 °F -5.4 °F 6.8 °F 85% 30.27 in 10.0 mi North 13.8 mph - N/A   Scattered Clouds
2:52 AM 12.9 °F -1.6 °F 8.1 °F 81% 30.44 in 10.0 mi NNW 12.7 mph - N/A   Mostly Cloudy
3:12 AM 12.2 °F -1.0 °F 8.6 °F 85% 30.27 in 10.0 mi NW 10.4 mph - N/A   Overcast
3:52 AM 12.9 °F -0.2 °F 8.1 °F 81% 30.44 in 10.0 mi NNW 10.4 mph - 0.00 in   Overcast
4:18 AM 8.6 °F -7.0 °F 5.0 °F 85% 30.26 in 10.0 mi NW 12.7 mph - N/A   Scattered Clouds
4:52 AM 8.1 °F -6.2 °F 3.9 °F 83% 30.45 in 10.0 mi NW 10.4 mph - N/A   Clear
5:52 AM 6.1 °F -5.6 °F 3.0 °F 87% 30.47 in 10.0 mi NW 6.9 mph - N/A   Clear
6:52 AM 3.9 °F -6.9 °F -2.0 °F 76% 30.48 in 10.0 mi NW 5.8 mph - N/A   Clear
7:52 AM 3.0 °F - -2.0 °F 80% 30.49 in 10.0 mi Calm Calm - N/A   Clear
8:52 AM 10.0 °F - 3.0 °F 73% 30.48 in 10.0 mi Calm Calm - N/A   Clear
9:52 AM 12.0 °F - 5.0 °F 73% 30.48 in 10.0 mi Calm Calm - N/A   Clear
10:52 AM 15.1 °F - 6.1 °F 68% 30.48 in 10.0 mi Calm Calm - N/A   Clear
11:52 AM 19.0 °F - 9.0 °F 65% 30.46 in 10.0 mi Calm Calm - N/A   Clear
12:52 PM 21.9 °F - 10.0 °F 60% 30.44 in 10.0 mi Calm Calm - N/A   Clear
1:52 PM 25.0 °F 20.7 °F 12.0 °F 58% 30.42 in 10.0 mi East 3.5 mph - N/A   Clear
2:52 PM 26.1 °F - 12.0 °F 55% 30.40 in 10.0 mi Calm Calm - N/A   Clear
3:52 PM 28.0 °F - 10.9 °F 49% 30.38 in 10.0 mi Calm Calm - N/A   Clear
4:52 PM 30.0 °F - 9.0 °F 41% 30.38 in 10.0 mi Calm Calm - N/A   Clear
5:52 PM 28.0 °F 24.2 °F 10.0 °F 47% 30.38 in 10.0 mi SSE 3.5 mph - N/A   Clear
6:52 PM 25.0 °F 20.7 °F 12.0 °F 58% 30.39 in 10.0 mi SSE 3.5 mph - N/A   Clear
7:52 PM 21.0 °F 16.2 °F 12.0 °F 68% 30.40 in 10.0 mi SSE 3.5 mph - N/A   Clear
8:52 PM 18.0 °F 11.1 °F 12.9 °F 81% 30.39 in 10.0 mi SE 4.6 mph - N/A   Clear
9:52 PM 16.0 °F 6.3 °F 12.0 °F 84% 30.38 in 10.0 mi SSE 6.9 mph - N/A   Clear
10:52 PM 15.1 °F 6.4 °F 10.9 °F 84% 30.36 in 10.0 mi SSE 5.8 mph - N/A   Clear
11:52 PM 18.0 °F 5.4 °F 10.9 °F 74% 30.32 in 10.0 mi South 11.5 mph - N/A   Clear